Location: Chefe Valiua
(16.5342°S, 37.2214°E)
Time: 12:09:51
(UTC+00:00)

Envisat - Pass Details

Date: 22 June 2021
Orbit: 764 x 766 km, 98.1° (Epoch: 25 July)

Event Time Altitude Azimuth Distance (km) Brightness Sun altitude
Rises 15:29:35 0° 189° (S) 3,247 6.1 -5.7°
Reaches altitude 10° 15:32:19 10° 203° (SSW) 2,315 5.5 -6.3°
Maximum altitude 15:36:16 23° 254° (WSW) 1,587 5.4 -7.2°
Drops below altitude 10° 15:40:13 10° 305° (NW) 2,299 7.0 -8.0°
Sets 15:42:56 0° 319° (NW) 3,218 7.5 -8.6°
